This is the latest recevied weather packets stored in our database for station/object KY4LEX. If no packets are shown the sender has not sent any weather packets the latest 10 day(s).
| Time | Temp. | Humidity | Pressure | Rain* | Wind** | Luminosity | Snow |
|---|---|---|---|---|---|---|---|
| 1777865155 | 11.11° C | 63% | 1020.4 hPa | 0 mm | - | 0 W/m² | - |
| 1777864851 | 11.11° C | 63% | 1020.4 hPa | 0 mm | - | 0 W/m² | - |
| 1777864548 | 11.11° C | 66% | 1020.5 hPa | 0 mm | - | 0 W/m² | - |
| 1777864244 | 10.56° C | 68% | 1020.5 hPa | 0 mm | - | 0 W/m² | - |
| 1777863942 | 10.56° C | 67% | 1020.8 hPa | 0 mm | - | 0 W/m² | - |
| 1777863638 | 10.56° C | 67% | 1020.8 hPa | 0 mm | - | 0 W/m² | - |
| 1777863335 | 10.56° C | 67% | 1020.8 hPa | 0 mm | - | 0 W/m² | - |
| 1777863032 | 10.56° C | 67% | 1020.6 hPa | 0 mm | - | 0 W/m² | - |
| 1777862729 | 10.56° C | 66% | 1020.9 hPa | 0 mm | - | 0 W/m² | - |
| 1777862426 | 10.56° C | 65% | 1021 hPa | 0 mm | - | 0 W/m² | - |
| 1777862122 | 11.11° C | 63% | 1021 hPa | 0 mm | - | 0 W/m² | - |
| 1777861818 | 11.11° C | 62% | 1021.1 hPa | 0 mm | - | 0 W/m² | - |
| 1777861514 | 11.11° C | 62% | 1021 hPa | 0 mm | - | 0 W/m² | - |
| 1777861211 | 11.67° C | 62% | 1021.2 hPa | 0 mm | - | 0 W/m² | - |
| 1777860909 | 11.67° C | 61% | 1020.8 hPa | 0 mm | - | 0 W/m² | - |
| 1777860606 | 11.67° C | 60% | 1020.8 hPa | 0 mm | - | 0 W/m² | - |
| 1777860302 | 11.67° C | 60% | 1020.7 hPa | 0 mm | - | 0 W/m² | - |
| 1777859999 | 12.22° C | 57% | 1020.6 hPa | 0 mm | - | 0 W/m² | - |
| 1777859695 | 12.22° C | 57% | 1020.7 hPa | 0 mm | - | 0 W/m² | - |
| 1777859391 | 12.22° C | 56% | 1020.4 hPa | 0 mm | - | 0 W/m² | - |
| 1777859087 | 12.22° C | 56% | 1020.4 hPa | 0 mm | - | 0 W/m² | - |
| 1777858784 | 12.78° C | 56% | 1020.3 hPa | 0 mm | - | 0 W/m² | - |
| 1777858483 | 12.78° C | 54% | 1020.3 hPa | 0 mm | - | 0 W/m² | - |
| 1777858178 | 12.78° C | 53% | 1020.2 hPa | 0 mm | - | 0 W/m² | - |
| 1777857877 | 12.78° C | 52% | 1020 hPa | 0 mm | - | 0 W/m² | - |
* Rain latest hour (hover to see other rain measurements)
** Current wind speed in m/s (hover to see current wind gust speed)